GFSSE_prec_precacc24_111.txt.gz
Total_Precipitation_Accumulation
0.00 0.00 0.00 0.00 0.00 0.02 0.01 0.01 0.00 0.00 0.00 0.00 0.00 0.00 0.00 0.00 0.00 0.00 0.00 0.00 0.00 0.01 0.01 0.01 0.01 0.01 0.03 0.02 0.02 0.04 0.05 0.04 0.05 0.08 0.14 0.09 0.06 0.06 0.04 0.10 0.07 0.04 0.10
0.00 0.00 0.04 0.00 0.00 0.01 0.01 0.00 0.01 0.00 0.00 0.00 0.00 0.00 0.00 0.00 0.00 0.00 0.00 0.00 0.01 0.01 0.01 0.00 0.00 0.02 0.04 0.02 0.03 0.06 0.04 0.01 0.02 0.04 0.12 0.17 0.09 0.04 0.02 0.01 0.02 0.03 0.05
0.00 0.00 0.02 0.00 0.01 0.10 0.28 0.08 0.01 0.01 0.01 0.00 0.00 0.00 0.00 0.00 0.00 0.00 0.01 0.00 0.00 0.01 0.01 0.00 0.03 0.05 0.03 0.01 0.03 0.07 0.01 0.01 0.01 0.03 0.07 0.02 0.04 0.04 0.02 0.03 0.06 0.07 0.04
0.00 0.00 0.00 0.00 0.06 0.19 0.32 0.16 0.10 0.03 0.01 0.01 0.11 0.09 0.04 0.00 0.00 0.01 0.01 0.01 0.01 0.01 0.02 0.03 0.05 0.07 0.03 0.02 0.01 0.01 0.00 0.00 0.00 0.00 0.00 0.01 0.04 0.08 0.03 0.03 0.05 0.03 0.02
0.00 0.01 0.03 0.05 0.10 0.15 0.19 0.16 0.33 0.41 0.31 0.06 0.05 0.07 0.09 0.04 0.04 0.05 0.04 0.01 0.02 0.03 0.07 0.09 0.11 0.04 0.03 0.06 0.00 0.00 0.00 0.00 0.00 0.00 0.00 0.01 0.02 0.06 0.03 0.01 0.01 0.01 0.01
0.00 0.00 0.14 0.36 0.35 0.35 0.44 0.72 1.02 1.04 0.79 0.49 0.39 0.58 0.66 0.64 0.49 0.40 0.23 0.11 0.11 0.09 0.08 0.09 0.07 0.03 0.01 0.00 0.00 0.00 0.00 0.00 0.00 0.00 0.00 0.01 0.01 0.02 0.01 0.00 0.01 0.01 0.01
0.00 0.00 0.10 0.45 0.90 1.31 1.05 1.14 1.38 1.64 1.32 1.21 1.52 1.63 1.55 1.37 0.98 0.50 0.22 0.11 0.08 0.08 0.12 0.12 0.04 0.01 0.00 0.00 0.00 0.00 0.00 0.00 0.00 0.00 0.00 0.00 0.01 0.02 0.02 0.01 0.01 0.01 0.01
0.00 0.00 0.08 0.13 0.13 0.61 1.30 1.52 2.06 2.05 1.87 1.89 1.58 2.02 2.41 1.11 1.00 0.71 0.34 0.18 0.10 0.08 0.18 0.14 0.03 0.00 0.00 0.00 0.00 0.00 0.00 0.00 0.00 0.00 0.00 0.00 0.02 0.02 0.02 0.01 0.01 0.01 0.00
0.00 0.01 0.01 0.01 0.18 0.31 0.66 1.32 2.25 2.99 2.77 2.36 2.13 1.90 2.11 1.44 1.22 0.91 0.36 0.23 0.15 0.08 0.14 0.16 0.05 0.01 0.00 0.00 0.00 0.00 0.00 0.00 0.00 0.00 0.00 0.00 0.02 0.02 0.01 0.01 0.01 0.01 0.01
0.00 0.01 0.01 0.01 0.09 0.18 0.29 1.24 2.32 2.96 3.24 2.51 2.37 1.73 1.20 1.42 1.48 1.36 0.54 0.23 0.14 0.09 0.09 0.15 0.05 0.06 0.03 0.00 0.00 0.00 0.00 0.00 0.00 0.00 0.00 0.00 0.01 0.01 0.01 0.01 0.01 0.00 0.00
0.00 0.01 0.01 0.02 0.07 0.06 0.10 0.86 1.75 2.64 2.07 2.29 2.18 1.61 1.07 0.87 0.84 0.80 0.47 0.28 0.15 0.04 0.03 0.03 0.02 0.03 0.01 0.00 0.00 0.00 0.00 0.00 0.00 0.00 0.00 0.00 0.01 0.01 0.01 0.01 0.00 0.01 0.01
0.01 0.01 0.00 0.00 0.03 0.10 0.08 0.35 0.87 2.46 1.86 1.57 1.66 1.25 1.07 0.85 0.49 0.37 0.26 0.20 0.22 0.04 0.00 0.01 0.00 0.00 0.00 0.00 0.00 0.00 0.00 0.00 0.00 0.00 0.00 0.01 0.02 0.01 0.00 0.00 0.00 0.00 0.00
0.00 0.01 0.01 0.01 0.02 0.04 0.10 0.33 0.47 1.65 2.65 1.65 1.69 1.15 1.14 0.75 0.38 0.34 0.16 0.15 0.32 0.18 0.02 0.03 0.00 0.00 0.00 0.00 0.00 0.00 0.00 0.00 0.00 0.00 0.00 0.00 0.01 0.00 0.00 0.00 0.00 0.00 0.00
0.00 0.03 0.03 0.01 0.04 0.09 0.10 0.20 0.35 0.82 2.54 2.29 1.78 1.49 1.17 0.70 0.18 0.12 0.04 0.04 0.06 0.14 0.05 0.02 0.00 0.00 0.00 0.00 0.00 0.00 0.00 0.00 0.00 0.00 0.00 0.00 0.00 0.00 0.00 0.00 0.00 0.00 0.00
0.01 0.04 0.05 0.03 0.03 0.08 0.10 0.10 0.19 0.37 1.32 2.22 1.60 1.36 1.00 0.46 0.12 0.06 0.01 0.03 0.02 0.03 0.04 0.03 0.00 0.00 0.00 0.00 0.00 0.00 0.00 0.00 0.00 0.00 0.00 0.00 0.00 0.00 0.00 0.00 0.00 0.00 0.00
0.01 0.02 0.06 0.09 0.01 0.01 0.06 0.07 0.08 0.28 0.61 1.66 1.26 0.85 1.02 0.39 0.09 0.03 0.01 0.01 0.03 0.04 0.03 0.01 0.00 0.00 0.00 0.00 0.00 0.00 0.00 0.00 0.00 0.00 0.00 0.00 0.00 0.00 0.00 0.00 0.00 0.00 0.00
0.00 0.01 0.03 0.08 0.06 0.05 0.04 0.07 0.14 0.32 0.56 1.10 0.92 0.76 1.07 0.43 0.11 0.03 0.04 0.05 0.02 0.01 0.01 0.00 0.00 0.00 0.00 0.00 0.00 0.00 0.00 0.00 0.00 0.00 0.00 0.00 0.00 0.00 0.00 0.00 0.00 0.00 0.00
0.01 0.03 0.02 0.02 0.04 0.02 0.05 0.20 0.30 0.40 0.54 0.81 0.68 0.79 1.19 0.49 0.16 0.04 0.03 0.03 0.04 0.02 0.00 0.00 0.00 0.00 0.00 0.00 0.00 0.00 0.00 0.00 0.00 0.00 0.00 0.00 0.00 0.00 0.00 0.00 0.00 0.00 0.00
0.01 0.01 0.01 0.00 0.00 0.01 0.07 0.36 0.36 0.40 0.50 0.63 0.53 0.66 1.26 0.74 0.47 0.10 0.03 0.01 0.02 0.03 0.00 0.00 0.00 0.00 0.00 0.00 0.00 0.00 0.00 0.00 0.00 0.00 0.00 0.00 0.00 0.00 0.00 0.00 0.00 0.00 0.00
0.01 0.01 0.01 0.00 0.02 0.03 0.04 0.24 0.31 0.39 0.54 0.55 0.56 0.57 1.13 0.69 0.64 0.57 0.18 0.04 0.06 0.03 0.00 0.00 0.00 0.00 0.00 0.00 0.00 0.00 0.00 0.00 0.00 0.00 0.00 0.00 0.00 0.00 0.00 0.00 0.00 0.00 0.00
0.01 0.01 0.01 0.00 0.01 0.02 0.03 0.12 0.24 0.35 0.55 0.64 0.69 0.51 1.03 0.87 0.50 0.62 0.59 0.15 0.07 0.02 0.00 0.00 0.00 0.00 0.00 0.00 0.00 0.00 0.00 0.00 0.00 0.00 0.00 0.00 0.00 0.00 0.00 0.00 0.00 0.00 0.00
0.01 0.01 0.00 0.01 0.00 0.01 0.01 0.04 0.09 0.18 0.40 0.41 0.94 0.61 0.66 0.79 0.28 0.27 0.27 0.19 0.13 0.03 0.01 0.00 0.00 0.00 0.00 0.00 0.00 0.00 0.00 0.00 0.00 0.00 0.00 0.00 0.00 0.00 0.00 0.00 0.00 0.00 0.00
0.00 0.01 0.00 0.00 0.01 0.01 0.01 0.04 0.07 0.10 0.16 0.25 0.83 0.95 0.63 0.63 0.37 0.17 0.12 0.10 0.13 0.03 0.01 0.00 0.00 0.00 0.00 0.00 0.00 0.00 0.04 0.06 0.04 0.00 0.00 0.00 0.00 0.00 0.00 0.00 0.00 0.00 0.00
0.00 0.01 0.00 0.00 0.01 0.01 0.00 0.01 0.02 0.06 0.08 0.10 0.34 0.62 0.72 0.54 0.49 0.28 0.18 0.11 0.09 0.03 0.02 0.00 0.00 0.00 0.00 0.00 0.00 0.00 0.02 0.02 0.11 0.11 0.04 0.00 0.00 0.00 0.00 0.00 0.00 0.00 0.00
0.00 0.00 0.01 0.00 0.00 0.01 0.00 0.00 0.02 0.02 0.06 0.08 0.25 0.58 0.65 0.68 0.58 0.45 0.28 0.21 0.11 0.08 0.06 0.04 0.01 0.01 0.01 0.01 0.03 0.02 0.01 0.00 0.00 0.02 0.04 0.03 0.01 0.01 0.00 0.00 0.00 0.00 0.00
0.00 0.00 0.01 0.01 0.00 0.00 0.00 0.01 0.01 0.01 0.02 0.04 0.09 0.51 0.69 0.65 0.66 0.53 0.39 0.29 0.17 0.14 0.11 0.09 0.05 0.02 0.02 0.02 0.04 0.07 0.08 0.03 0.02 0.06 0.06 0.02 0.06 0.03 0.01 0.00 0.00 0.00 0.00

GFSSE_prec_precacc24_114.txt.gz
Total_Precipitation_Accumulation
0.00 0.00 0.00 0.00 0.00 0.01 0.01 0.01 0.00 0.00 0.00 0.00 0.00 0.00 0.00 0.00 0.00 0.00 0.01 0.01 0.00 0.01 0.02 0.01 0.02 0.02 0.03 0.01 0.02 0.04 0.05 0.03 0.04 0.09 0.18 0.14 0.09 0.08 0.06 0.11 0.07 0.03 0.12
0.00 0.00 0.03 0.00 0.00 0.01 0.01 0.00 0.01 0.00 0.00 0.00 0.00 0.00 0.00 0.00 0.00 0.00 0.00 0.01 0.01 0.01 0.01 0.01 0.03 0.04 0.05 0.02 0.04 0.06 0.04 0.01 0.02 0.05 0.13 0.19 0.12 0.06 0.03 0.02 0.03 0.04 0.06
0.00 0.00 0.01 0.00 0.01 0.05 0.22 0.08 0.01 0.01 0.01 0.00 0.00 0.00 0.01 0.00 0.00 0.00 0.01 0.01 0.01 0.01 0.01 0.00 0.03 0.08 0.03 0.04 0.04 0.07 0.01 0.01 0.01 0.03 0.09 0.04 0.06 0.05 0.01 0.03 0.06 0.08 0.04
0.00 0.00 0.00 0.00 0.00 0.07 0.22 0.14 0.10 0.03 0.01 0.01 0.11 0.10 0.21 0.03 0.04 0.11 0.03 0.02 0.01 0.02 0.02 0.03 0.08 0.08 0.03 0.03 0.01 0.01 0.00 0.00 0.00 0.00 0.01 0.02 0.04 0.08 0.03 0.03 0.06 0.04 0.02
0.00 0.00 0.01 0.01 0.01 0.08 0.12 0.05 0.16 0.39 0.31 0.06 0.05 0.14 0.16 0.17 0.20 0.23 0.25 0.03 0.02 0.04 0.11 0.15 0.15 0.05 0.03 0.06 0.00 0.00 0.00 0.00 0.00 0.00 0.00 0.01 0.03 0.07 0.04 0.02 0.02 0.02 0.02
0.00 0.00 0.00 0.05 0.10 0.16 0.21 0.38 0.71 0.94 0.80 0.54 0.43 0.61 0.77 1.03 1.04 0.82 0.60 0.25 0.15 0.22 0.19 0.18 0.08 0.04 0.01 0.00 0.00 0.00 0.00 0.00 0.00 0.01 0.02 0.01 0.03 0.04 0.01 0.01 0.01 0.02 0.02
0.00 0.00 0.00 0.08 0.07 0.21 0.40 0.55 1.19 1.62 1.33 1.35 1.72 1.71 1.67 1.59 1.96 1.11 0.54 0.48 0.15 0.12 0.14 0.17 0.07 0.02 0.02 0.02 0.00 0.00 0.00 0.00 0.00 0.01 0.01 0.02 0.02 0.01 0.01 0.01 0.01 0.01 0.01
0.00 0.00 0.00 0.02 0.00 0.08 0.12 0.44 1.44 2.02 1.87 1.91 1.65 2.06 2.42 1.12 1.02 0.72 0.37 0.23 0.13 0.08 0.18 0.17 0.06 0.04 0.06 0.03 0.00 0.00 0.00 0.00 0.01 0.01 0.03 0.03 0.02 0.02 0.02 0.01 0.01 0.01 0.00
0.00 0.00 0.00 0.00 0.00 0.02 0.10 0.11 1.04 2.64 2.74 2.36 2.14 1.92 2.11 1.44 1.22 0.93 0.40 0.23 0.15 0.08 0.14 0.19 0.10 0.10 0.05 0.02 0.00 0.00 0.00 0.00 0.02 0.01 0.04 0.03 0.02 0.02 0.01 0.01 0.01 0.01 0.01
0.00 0.00 0.00 0.00 0.01 0.01 0.06 0.25 0.97 2.19 2.70 2.43 2.36 1.73 1.23 1.43 1.48 1.36 0.54 0.23 0.14 0.09 0.09 0.16 0.10 0.13 0.11 0.04 0.01 0.00 0.00 0.00 0.04 0.01 0.01 0.01 0.01 0.01 0.01 0.01 0.01 0.01 0.01
0.00 0.00 0.00 0.01 0.01 0.02 0.03 0.27 0.91 1.74 1.61 2.09 2.15 1.63 1.11 0.92 0.87 0.81 0.47 0.28 0.15 0.04 0.03 0.07 0.06 0.08 0.06 0.04 0.03 0.00 0.01 0.03 0.04 0.02 0.01 0.01 0.01 0.01 0.01 0.01 0.00 0.01 0.01
0.00 0.00 0.00 0.00 0.01 0.02 0.01 0.18 0.55 1.65 1.37 1.32 1.61 1.25 1.07 0.87 0.49 0.37 0.26 0.20 0.23 0.05 0.01 0.06 0.13 0.07 0.09 0.02 0.02 0.01 0.03 0.02 0.01 0.01 0.00 0.01 0.01 0.01 0.01 0.00 0.01 0.00 0.00
0.00 0.01 0.01 0.00 0.02 0.03 0.06 0.27 0.34 0.95 2.19 1.25 1.47 1.13 1.14 0.76 0.39 0.34 0.16 0.17 0.41 0.25 0.05 0.06 0.05 0.03 0.04 0.02 0.00 0.00 0.00 0.00 0.00 0.00 0.00 0.01 0.02 0.01 0.01 0.00 0.00 0.00 0.00
0.00 0.01 0.02 0.01 0.03 0.09 0.08 0.17 0.29 0.42 1.83 1.97 1.40 1.39 1.16 0.71 0.20 0.12 0.05 0.05 0.13 0.30 0.13 0.06 0.03 0.03 0.03 0.01 0.00 0.00 0.00 0.00 0.00 0.00 0.00 0.00 0.01 0.01 0.00 0.01 0.01 0.01 0.01
0.00 0.01 0.03 0.01 0.03 0.08 0.09 0.08 0.11 0.22 0.74 1.97 1.50 1.32 1.02 0.51 0.14 0.06 0.02 0.03 0.05 0.15 0.17 0.11 0.04 0.02 0.01 0.00 0.00 0.00 0.00 0.00 0.00 0.00 0.00 0.00 0.01 0.01 0.01 0.01 0.01 0.01 0.01
0.00 0.00 0.02 0.02 0.01 0.01 0.05 0.05 0.03 0.11 0.33 1.39 1.23 0.85 1.04 0.46 0.14 0.06 0.04 0.02 0.08 0.08 0.11 0.05 0.03 0.01 0.00 0.00 0.00 0.00 0.00 0.00 0.00 0.00 0.00 0.00 0.00 0.01 0.01 0.01 0.01 0.01 0.00
0.00 0.00 0.01 0.01 0.00 0.00 0.02 0.01 0.02 0.08 0.36 0.92 0.85 0.76 1.08 0.46 0.16 0.06 0.07 0.09 0.04 0.04 0.04 0.03 0.02 0.02 0.00 0.00 0.00 0.00 0.00 0.00 0.00 0.00 0.00 0.00 0.00 0.00 0.01 0.01 0.00 0.00 0.00
0.00 0.01 0.01 0.00 0.00 0.00 0.01 0.01 0.02 0.07 0.30 0.63 0.59 0.79 1.20 0.50 0.17 0.06 0.07 0.09 0.07 0.02 0.01 0.01 0.01 0.01 0.00 0.00 0.00 0.00 0.00 0.00 0.00 0.00 0.00 0.00 0.00 0.00 0.00 0.00 0.00 0.00 0.00
0.00 0.00 0.00 0.00 0.00 0.01 0.01 0.03 0.05 0.16 0.27 0.44 0.43 0.66 1.28 0.75 0.49 0.13 0.07 0.07 0.04 0.05 0.01 0.00 0.01 0.01 0.00 0.00 0.00 0.00 0.00 0.00 0.00 0.00 0.00 0.00 0.00 0.00 0.00 0.00 0.00 0.00 0.00
0.00 0.00 0.00 0.00 0.01 0.00 0.02 0.05 0.13 0.21 0.35 0.40 0.50 0.57 1.13 0.71 0.67 0.69 0.31 0.15 0.08 0.05 0.02 0.00 0.01 0.01 0.00 0.00 0.00 0.00 0.00 0.00 0.00 0.00 0.00 0.00 0.00 0.00 0.00 0.00 0.00 0.00 0.00
0.00 0.01 0.00 0.00 0.01 0.00 0.01 0.04 0.14 0.24 0.44 0.54 0.65 0.51 1.04 0.87 0.56 0.81 0.92 0.34 0.11 0.04 0.01 0.00 0.01 0.01 0.00 0.00 0.00 0.00 0.00 0.00 0.00 0.00 0.00 0.00 0.00 0.00 0.00 0.00 0.00 0.00 0.00
0.00 0.01 0.00 0.00 0.00 0.01 0.01 0.02 0.07 0.14 0.33 0.36 0.91 0.61 0.66 0.80 0.30 0.35 0.64 0.56 0.29 0.05 0.02 0.00 0.00 0.01 0.00 0.00 0.00 0.00 0.00 0.01 0.00 0.00 0.00 0.00 0.00 0.00 0.00 0.00 0.00 0.00 0.00
0.00 0.00 0.00 0.00 0.01 0.01 0.01 0.03 0.06 0.06 0.14 0.24 0.82 0.95 0.64 0.64 0.38 0.19 0.29 0.36 0.36 0.14 0.03 0.00 0.00 0.00 0.00 0.00 0.00 0.00 0.04 0.05 0.04 0.00 0.00 0.00 0.00 0.00 0.00 0.00 0.00 0.00 0.00
0.00 0.00 0.00 0.00 0.01 0.01 0.00 0.01 0.02 0.05 0.08 0.10 0.35 0.63 0.73 0.55 0.50 0.31 0.27 0.32 0.38 0.19 0.07 0.01 0.00 0.00 0.00 0.00 0.00 0.00 0.02 0.02 0.11 0.09 0.04 0.00 0.00 0.00 0.00 0.00 0.00 0.00 0.00
0.00 0.00 0.00 0.00 0.00 0.01 0.00 0.00 0.02 0.02 0.06 0.09 0.26 0.58 0.67 0.69 0.59 0.54 0.48 0.49 0.30 0.33 0.14 0.06 0.01 0.00 0.00 0.01 0.02 0.02 0.01 0.00 0.00 0.02 0.03 0.02 0.01 0.01 0.00 0.00 0.00 0.00 0.00
0.00 0.00 0.01 0.01 0.00 0.00 0.00 0.01 0.01 0.01 0.02 0.05 0.10 0.51 0.70 0.66 0.67 0.58 0.58 0.62 0.44 0.27 0.31 0.13 0.08 0.03 0.02 0.02 0.03 0.07 0.08 0.03 0.02 0.06 0.06 0.01 0.05 0.03 0.01 0.00 0.00 0.00 0.00

GFSSE_prec_precacc24_117.txt.gz
Total_Precipitation_Accumulation
0.00 0.00 0.00 0.00 0.00 0.00 0.00 0.01 0.00 0.00 0.00 0.00 0.00 0.00 0.00 0.00 0.00 0.00 0.01 0.01 0.00 0.01 0.02 0.01 0.02 0.01 0.03 0.03 0.02 0.04 0.05 0.03 0.04 0.10 0.20 0.15 0.09 0.09 0.11 0.14 0.07 0.02 0.12
0.00 0.00 0.00 0.00 0.00 0.00 0.00 0.00 0.01 0.00 0.00 0.00 0.00 0.00 0.00 0.00 0.03 0.01 0.00 0.01 0.03 0.03 0.02 0.01 0.03 0.05 0.05 0.04 0.07 0.06 0.04 0.01 0.02 0.05 0.14 0.20 0.12 0.06 0.04 0.07 0.05 0.05 0.07
0.00 0.00 0.00 0.00 0.01 0.01 0.02 0.01 0.00 0.00 0.01 0.00 0.00 0.00 0.06 0.09 0.06 0.01 0.02 0.01 0.09 0.09 0.01 0.01 0.05 0.08 0.07 0.08 0.05 0.07 0.01 0.01 0.01 0.05 0.13 0.05 0.07 0.06 0.03 0.05 0.07 0.09 0.05
0.00 0.00 0.00 0.00 0.00 0.02 0.04 0.02 0.04 0.01 0.00 0.01 0.11 0.12 0.26 0.09 0.10 0.42 0.30 0.11 0.06 0.04 0.03 0.05 0.11 0.10 0.04 0.03 0.01 0.01 0.00 0.00 0.01 0.03 0.04 0.05 0.05 0.08 0.03 0.03 0.07 0.04 0.04
0.00 0.00 0.00 0.01 0.01 0.03 0.03 0.02 0.09 0.19 0.17 0.06 0.06 0.23 0.28 0.39 0.93 1.23 0.99 0.48 0.20 0.07 0.14 0.17 0.17 0.07 0.03 0.06 0.00 0.00 0.00 0.00 0.02 0.06 0.02 0.01 0.03 0.08 0.04 0.03 0.03 0.04 0.05
0.00 0.00 0.00 0.01 0.02 0.01 0.03 0.19 0.40 0.52 0.56 0.54 0.47 0.65 0.87 1.35 2.05 1.79 1.09 0.97 0.78 0.54 0.34 0.30 0.10 0.04 0.01 0.00 0.00 0.00 0.00 0.00 0.01 0.01 0.02 0.03 0.04 0.07 0.02 0.02 0.02 0.02 0.02
0.00 0.00 0.00 0.00 0.00 0.01 0.02 0.16 0.48 0.74 0.85 1.31 1.75 1.76 1.81 1.77 2.41 1.37 0.63 0.97 1.41 0.47 0.19 0.20 0.08 0.02 0.05 0.03 0.00 0.00 0.00 0.00 0.01 0.02 0.03 0.07 0.04 0.03 0.01 0.01 0.01 0.01 0.01
0.00 0.00 0.00 0.00 0.00 0.05 0.02 0.13 0.25 0.50 1.03 1.69 1.63 2.10 2.43 1.28 1.09 0.74 0.37 0.37 0.50 0.29 0.24 0.18 0.06 0.04 0.07 0.05 0.01 0.00 0.00 0.03 0.03 0.03 0.07 0.06 0.03 0.02 0.02 0.01 0.01 0.01 0.00
0.00 0.00 0.00 0.00 0.00 0.01 0.06 0.07 0.11 0.39 1.45 1.94 2.03 1.90 2.12 1.55 1.22 0.93 0.40 0.27 0.21 0.13 0.15 0.19 0.10 0.10 0.07 0.05 0.02 0.00 0.00 0.02 0.03 0.03 0.09 0.05 0.02 0.02 0.01 0.01 0.01 0.01 0.01
0.00 0.00 0.00 0.00 0.00 0.00 0.04 0.15 0.25 0.67 1.39 1.82 2.19 1.71 1.29 1.52 1.49 1.36 0.54 0.25 0.18 0.11 0.09 0.18 0.17 0.19 0.12 0.06 0.02 0.00 0.00 0.04 0.06 0.06 0.06 0.04 0.01 0.01 0.01 0.01 0.01 0.01 0.01
0.00 0.00 0.00 0.00 0.01 0.01 0.02 0.08 0.17 0.39 0.87 1.34 1.96 1.65 1.17 0.94 0.87 0.82 0.47 0.29 0.16 0.08 0.11 0.19 0.19 0.17 0.10 0.09 0.05 0.01 0.02 0.08 0.09 0.07 0.04 0.01 0.01 0.01 0.01 0.01 0.00 0.01 0.01
0.00 0.00 0.00 0.00 0.01 0.01 0.00 0.02 0.08 0.16 0.40 0.92 1.41 1.23 1.10 0.92 0.53 0.38 0.27 0.22 0.25 0.12 0.15 0.19 0.22 0.17 0.19 0.05 0.04 0.05 0.08 0.06 0.03 0.04 0.02 0.01 0.01 0.01 0.01 0.00 0.01 0.00 0.00
0.00 0.00 0.00 0.00 0.02 0.02 0.00 0.07 0.10 0.08 0.26 0.61 1.31 1.10 1.16 0.81 0.46 0.35 0.18 0.19 0.49 0.33 0.12 0.14 0.11 0.10 0.12 0.06 0.03 0.06 0.04 0.00 0.00 0.00 0.00 0.01 0.02 0.01 0.01 0.01 0.01 0.00 0.00
0.00 0.00 0.00 0.00 0.02 0.06 0.06 0.07 0.12 0.13 0.51 0.83 1.18 1.28 1.17 0.71 0.23 0.14 0.08 0.11 0.20 0.37 0.17 0.08 0.07 0.11 0.10 0.06 0.04 0.03 0.00 0.00 0.00 0.00 0.00 0.01 0.01 0.01 0.01 0.01 0.01 0.01 0.01
0.00 0.00 0.01 0.01 0.02 0.07 0.08 0.07 0.07 0.14 0.33 1.32 1.30 1.21 0.96 0.55 0.18 0.11 0.07 0.11 0.12 0.22 0.29 0.22 0.10 0.12 0.09 0.06 0.01 0.00 0.00 0.00 0.00 0.00 0.00 0.00 0.01 0.01 0.01 0.01 0.01 0.01 0.01
0.00 0.00 0.01 0.01 0.01 0.01 0.04 0.03 0.02 0.07 0.15 1.19 1.13 0.79 0.96 0.47 0.21 0.12 0.10 0.09 0.15 0.15 0.18 0.31 0.21 0.07 0.06 0.01 0.00 0.00 0.00 0.00 0.00 0.00 0.00 0.00 0.00 0.01 0.01 0.02 0.02 0.01 0.00
0.00 0.00 0.01 0.00 0.00 0.00 0.01 0.01 0.02 0.07 0.09 0.71 0.79 0.72 1.07 0.52 0.26 0.14 0.13 0.15 0.10 0.12 0.14 0.16 0.22 0.20 0.11 0.03 0.00 0.00 0.00 0.00 0.00 0.00 0.00 0.00 0.00 0.01 0.01 0.02 0.02 0.01 0.00
0.00 0.00 0.00 0.00 0.00 0.00 0.00 0.01 0.02 0.02 0.05 0.35 0.54 0.75 1.19 0.53 0.27 0.16 0.14 0.16 0.14 0.09 0.07 0.05 0.05 0.09 0.09 0.03 0.01 0.01 0.00 0.00 0.00 0.00 0.00 0.00 0.00 0.00 0.00 0.01 0.01 0.01 0.00
0.00 0.00 0.00 0.00 0.00 0.00 0.00 0.00 0.02 0.02 0.04 0.25 0.37 0.63 1.28 0.76 0.53 0.20 0.14 0.15 0.13 0.11 0.05 0.01 0.03 0.03 0.02 0.01 0.01 0.01 0.00 0.00 0.00 0.00 0.00 0.00 0.00 0.00 0.00 0.00 0.00 0.00 0.00
0.00 0.00 0.00 0.00 0.01 0.00 0.00 0.01 0.02 0.06 0.08 0.27 0.41 0.53 1.14 0.73 0.68 0.74 0.36 0.23 0.17 0.11 0.05 0.02 0.04 0.05 0.01 0.00 0.00 0.02 0.00 0.00 0.00 0.00 0.00 0.00 0.00 0.00 0.00 0.00 0.00 0.00 0.00
0.00 0.00 0.00 0.00 0.00 0.00 0.00 0.01 0.03 0.07 0.13 0.27 0.50 0.45 1.03 0.88 0.57 0.82 0.94 0.40 0.28 0.13 0.05 0.03 0.06 0.05 0.05 0.01 0.03 0.04 0.02 0.00 0.00 0.00 0.00 0.00 0.00 0.00 0.00 0.00 0.00 0.00 0.00
0.00 0.00 0.00 0.00 0.00 0.00 0.00 0.02 0.03 0.04 0.14 0.15 0.77 0.57 0.66 0.79 0.30 0.36 0.65 0.58 0.39 0.16 0.10 0.04 0.07 0.05 0.05 0.03 0.02 0.01 0.02 0.01 0.01 0.00 0.00 0.00 0.00 0.00 0.00 0.00 0.00 0.00 0.00
0.00 0.00 0.00 0.00 0.01 0.01 0.01 0.03 0.05 0.04 0.10 0.17 0.75 0.92 0.64 0.64 0.38 0.19 0.30 0.43 0.44 0.30 0.18 0.05 0.03 0.04 0.04 0.04 0.02 0.00 0.02 0.02 0.02 0.00 0.00 0.00 0.00 0.00 0.00 0.00 0.00 0.00 0.00
0.00 0.00 0.00 0.00 0.01 0.01 0.00 0.01 0.02 0.05 0.07 0.09 0.33 0.61 0.73 0.56 0.51 0.31 0.27 0.37 0.49 0.35 0.22 0.09 0.04 0.05 0.04 0.02 0.02 0.01 0.01 0.01 0.05 0.02 0.01 0.00 0.00 0.00 0.00 0.00 0.00 0.00 0.00
0.00 0.00 0.00 0.00 0.00 0.00 0.00 0.00 0.01 0.02 0.06 0.09 0.25 0.58 0.67 0.70 0.60 0.55 0.48 0.51 0.44 0.57 0.32 0.15 0.09 0.05 0.04 0.02 0.01 0.02 0.01 0.00 0.00 0.01 0.01 0.00 0.01 0.01 0.00 0.00 0.00 0.00 0.00
0.00 0.00 0.00 0.00 0.00 0.00 0.00 0.00 0.01 0.01 0.02 0.05 0.10 0.51 0.71 0.67 0.68 0.59 0.59 0.68 0.60 0.48 0.56 0.25 0.16 0.08 0.02 0.02 0.04 0.04 0.05 0.01 0.01 0.02 0.02 0.00 0.02 0.01 0.00 0.00 0.00 0.00 0.00

GFSSE_prec_precacc24_123.txt.gz
Total_Precipitation_Accumulation
0.00 0.00 0.00 0.00 0.00 0.00 0.00 0.00 0.00 0.00 0.00 0.00 0.00 0.00 0.00 0.00 0.00 0.00 0.01 0.01 0.01 0.05 0.07 0.03 0.05 0.09 0.14 0.13 0.10 0.10 0.13 0.15 0.13 0.20 0.28 0.14 0.07 0.06 0.11 0.11 0.07 0.02 0.10
0.00 0.00 0.00 0.00 0.00 0.00 0.00 0.00 0.00 0.00 0.00 0.00 0.00 0.00 0.01 0.02 0.06 0.04 0.02 0.01 0.04 0.10 0.10 0.06 0.11 0.17 0.14 0.12 0.11 0.07 0.04 0.03 0.07 0.13 0.18 0.18 0.10 0.05 0.06 0.09 0.04 0.04 0.08
0.00 0.00 0.00 0.00 0.01 0.00 0.00 0.00 0.00 0.00 0.00 0.00 0.00 0.00 0.09 0.14 0.17 0.21 0.24 0.20 0.25 0.28 0.11 0.03 0.10 0.13 0.09 0.10 0.06 0.07 0.02 0.02 0.04 0.09 0.15 0.05 0.09 0.13 0.04 0.09 0.07 0.10 0.06
0.00 0.00 0.00 0.00 0.00 0.00 0.00 0.00 0.00 0.00 0.00 0.01 0.11 0.12 0.30 0.20 0.31 0.83 1.03 0.91 0.74 0.64 0.31 0.12 0.13 0.11 0.06 0.04 0.02 0.03 0.02 0.01 0.03 0.06 0.06 0.06 0.05 0.14 0.05 0.04 0.08 0.06 0.04
0.00 0.00 0.00 0.00 0.00 0.01 0.00 0.00 0.00 0.01 0.01 0.04 0.06 0.24 0.39 0.60 1.31 2.23 2.44 1.50 1.53 1.33 0.82 0.47 0.24 0.08 0.05 0.06 0.01 0.03 0.03 0.03 0.04 0.09 0.02 0.02 0.03 0.09 0.03 0.03 0.04 0.06 0.05
0.00 0.00 0.00 0.00 0.00 0.00 0.00 0.00 0.01 0.04 0.04 0.07 0.33 0.61 0.92 1.37 2.31 2.31 1.51 1.30 1.68 2.86 1.39 0.89 0.34 0.08 0.01 0.00 0.00 0.01 0.01 0.04 0.05 0.07 0.04 0.03 0.04 0.07 0.02 0.03 0.02 0.02 0.02
0.00 0.00 0.00 0.00 0.00 0.00 0.00 0.00 0.03 0.18 0.27 0.35 0.80 1.19 1.49 1.64 2.42 1.38 0.65 1.00 2.33 2.15 0.76 0.65 0.34 0.04 0.05 0.03 0.00 0.02 0.09 0.13 0.08 0.04 0.05 0.12 0.06 0.09 0.02 0.01 0.01 0.01 0.01
0.00 0.00 0.00 0.00 0.00 0.00 0.00 0.01 0.01 0.07 0.29 0.41 0.48 0.89 1.21 0.90 0.97 0.73 0.38 0.38 0.53 0.43 0.41 0.32 0.17 0.10 0.08 0.05 0.02 0.04 0.14 0.17 0.10 0.04 0.10 0.09 0.06 0.05 0.02 0.01 0.01 0.01 0.00
0.00 0.00 0.00 0.00 0.00 0.00 0.00 0.01 0.02 0.10 0.39 0.33 0.31 0.48 0.75 0.72 0.90 0.91 0.40 0.27 0.21 0.14 0.21 0.28 0.24 0.24 0.15 0.12 0.10 0.04 0.05 0.06 0.09 0.05 0.10 0.05 0.06 0.04 0.01 0.01 0.01 0.01 0.01
0.00 0.00 0.00 0.00 0.00 0.00 0.01 0.03 0.15 0.57 0.92 0.72 0.40 0.38 0.32 0.31 0.90 1.28 0.54 0.25 0.20 0.16 0.22 0.36 0.50 0.59 0.33 0.25 0.15 0.05 0.02 0.12 0.14 0.10 0.08 0.04 0.02 0.01 0.01 0.00 0.00 0.01 0.01
0.00 0.00 0.00 0.00 0.00 0.00 0.00 0.03 0.09 0.33 0.52 0.53 0.69 0.53 0.27 0.17 0.38 0.71 0.47 0.29 0.24 0.26 0.35 0.42 0.37 0.50 0.55 0.30 0.15 0.16 0.09 0.13 0.14 0.09 0.05 0.01 0.01 0.01 0.00 0.00 0.00 0.01 0.01
0.00 0.00 0.00 0.00 0.00 0.00 0.00 0.01 0.04 0.11 0.26 0.31 0.49 0.30 0.21 0.19 0.30 0.33 0.28 0.24 0.40 0.34 0.32 0.25 0.28 0.36 0.47 0.31 0.16 0.12 0.11 0.08 0.07 0.05 0.02 0.01 0.01 0.01 0.01 0.00 0.01 0.00 0.00
0.00 0.00 0.00 0.00 0.00 0.00 0.00 0.00 0.02 0.03 0.07 0.16 0.20 0.19 0.14 0.17 0.27 0.38 0.24 0.26 0.62 0.40 0.14 0.14 0.12 0.16 0.24 0.28 0.22 0.09 0.05 0.02 0.02 0.01 0.00 0.01 0.02 0.01 0.01 0.01 0.01 0.01 0.00
0.00 0.00 0.00 0.00 0.00 0.00 0.00 0.01 0.01 0.03 0.06 0.10 0.10 0.14 0.15 0.21 0.15 0.16 0.13 0.21 0.21 0.38 0.18 0.08 0.11 0.16 0.20 0.21 0.19 0.09 0.09 0.09 0.04 0.01 0.00 0.01 0.02 0.01 0.01 0.02 0.01 0.01 0.02
0.00 0.00 0.00 0.00 0.00 0.00 0.00 0.00 0.01 0.02 0.05 0.14 0.20 0.20 0.18 0.34 0.15 0.11 0.13 0.20 0.14 0.23 0.31 0.26 0.17 0.19 0.20 0.19 0.11 0.08 0.07 0.10 0.03 0.00 0.00 0.00 0.01 0.01 0.01 0.02 0.01 0.01 0.01
0.00 0.00 0.00 0.00 0.00 0.00 0.00 0.00 0.01 0.02 0.04 0.12 0.20 0.17 0.31 0.35 0.22 0.14 0.16 0.14 0.21 0.21 0.23 0.40 0.35 0.20 0.16 0.07 0.20 0.11 0.07 0.05 0.01 0.00 0.00 0.00 0.00 0.01 0.02 0.03 0.02 0.02 0.00
0.00 0.00 0.00 0.00 0.00 0.00 0.00 0.01 0.01 0.02 0.03 0.10 0.20 0.24 0.45 0.41 0.29 0.21 0.19 0.21 0.16 0.18 0.16 0.18 0.30 0.48 0.47 0.31 0.11 0.01 0.03 0.00 0.00 0.00 0.00 0.00 0.00 0.01 0.01 0.03 0.02 0.01 0.01
0.00 0.00 0.00 0.00 0.00 0.00 0.00 0.00 0.01 0.01 0.02 0.11 0.17 0.27 0.69 0.47 0.29 0.23 0.22 0.26 0.23 0.16 0.11 0.07 0.07 0.24 0.35 0.28 0.17 0.09 0.03 0.00 0.00 0.00 0.00 0.00 0.00 0.00 0.01 0.01 0.01 0.01 0.00
0.00 0.00 0.00 0.00 0.00 0.00 0.00 0.00 0.01 0.01 0.02 0.15 0.13 0.26 1.04 0.74 0.54 0.25 0.18 0.23 0.21 0.16 0.07 0.02 0.07 0.06 0.14 0.16 0.14 0.06 0.01 0.00 0.00 0.00 0.00 0.00 0.00 0.00 0.00 0.00 0.00 0.00 0.00
0.00 0.00 0.00 0.00 0.00 0.00 0.00 0.00 0.02 0.03 0.02 0.16 0.21 0.34 0.88 0.69 0.68 0.76 0.40 0.29 0.22 0.16 0.08 0.02 0.05 0.06 0.03 0.06 0.13 0.08 0.01 0.00 0.00 0.00 0.00 0.00 0.00 0.00 0.00 0.00 0.00 0.00 0.00
0.00 0.00 0.00 0.00 0.00 0.00 0.00 0.01 0.02 0.03 0.02 0.19 0.34 0.34 0.81 0.78 0.54 0.83 0.97 0.44 0.35 0.18 0.06 0.03 0.06 0.07 0.06 0.04 0.16 0.17 0.09 0.00 0.00 0.00 0.00 0.00 0.00 0.00 0.00 0.00 0.00 0.00 0.00
0.00 0.00 0.00 0.00 0.00 0.00 0.00 0.00 0.01 0.01 0.02 0.06 0.62 0.36 0.51 0.71 0.27 0.36 0.66 0.60 0.39 0.20 0.12 0.08 0.10 0.08 0.07 0.04 0.08 0.08 0.12 0.04 0.01 0.00 0.00 0.00 0.00 0.00 0.00 0.00 0.00 0.00 0.00
0.00 0.00 0.00 0.00 0.00 0.00 0.00 0.00 0.01 0.02 0.04 0.04 0.51 0.65 0.43 0.56 0.37 0.18 0.30 0.43 0.44 0.32 0.22 0.08 0.09 0.09 0.06 0.06 0.06 0.03 0.02 0.02 0.01 0.00 0.00 0.00 0.00 0.00 0.00 0.00 0.00 0.00 0.00
0.00 0.00 0.00 0.00 0.00 0.00 0.00 0.01 0.01 0.02 0.02 0.03 0.27 0.47 0.52 0.45 0.46 0.28 0.25 0.36 0.48 0.35 0.25 0.13 0.13 0.14 0.13 0.10 0.10 0.10 0.00 0.00 0.00 0.00 0.00 0.00 0.00 0.00 0.00 0.00 0.00 0.00 0.00
0.00 0.00 0.00 0.00 0.00 0.00 0.00 0.00 0.02 0.02 0.03 0.04 0.23 0.55 0.57 0.61 0.54 0.51 0.46 0.48 0.42 0.54 0.29 0.18 0.22 0.22 0.12 0.06 0.02 0.05 0.02 0.02 0.00 0.00 0.00 0.00 0.00 0.01 0.00 0.00 0.00 0.00 0.00
0.00 0.00 0.00 0.00 0.00 0.00 0.00 0.00 0.01 0.02 0.02 0.03 0.08 0.50 0.69 0.66 0.67 0.59 0.59 0.65 0.57 0.46 0.56 0.26 0.23 0.25 0.19 0.11 0.08 0.04 0.03 0.03 0.01 0.01 0.01 0.00 0.00 0.00 0.00 0.00 0.00 0.00 0.00

GFSSE_prec_precacc24_129.txt.gz
Total_Precipitation_Accumulation
0.00 0.00 0.00 0.00 0.00 0.00 0.00 0.00 0.00 0.00 0.00 0.00 0.00 0.00 0.00 0.00 0.00 0.00 0.01 0.04 0.06 0.09 0.09 0.04 0.07 0.10 0.16 0.17 0.17 0.19 0.14 0.24 0.45 0.81 0.76 0.28 0.12 0.10 0.10 0.11 0.07 0.01 0.10
0.00 0.00 0.00 0.00 0.00 0.00 0.00 0.00 0.00 0.00 0.00 0.00 0.00 0.00 0.01 0.03 0.07 0.05 0.05 0.08 0.14 0.21 0.19 0.13 0.19 0.24 0.17 0.16 0.18 0.19 0.10 0.03 0.08 0.34 0.77 0.39 0.12 0.05 0.05 0.09 0.04 0.05 0.12
0.00 0.00 0.00 0.00 0.01 0.00 0.00 0.00 0.00 0.00 0.00 0.00 0.00 0.00 0.09 0.15 0.18 0.22 0.28 0.26 0.37 0.43 0.30 0.17 0.21 0.28 0.25 0.23 0.17 0.20 0.10 0.02 0.04 0.12 0.27 0.17 0.10 0.12 0.03 0.08 0.04 0.10 0.09
0.00 0.00 0.00 0.00 0.00 0.00 0.00 0.00 0.00 0.00 0.00 0.01 0.11 0.12 0.30 0.20 0.31 0.83 1.03 0.91 0.74 0.66 0.43 0.29 0.24 0.22 0.18 0.15 0.10 0.07 0.04 0.02 0.06 0.09 0.07 0.07 0.04 0.10 0.03 0.03 0.09 0.10 0.08
0.00 0.00 0.00 0.00 0.00 0.01 0.00 0.00 0.00 0.01 0.01 0.04 0.06 0.24 0.39 0.60 1.31 2.23 2.44 1.49 1.52 1.35 0.87 0.56 0.35 0.16 0.10 0.07 0.02 0.05 0.04 0.04 0.08 0.12 0.03 0.02 0.04 0.08 0.06 0.05 0.08 0.10 0.06
0.00 0.00 0.00 0.00 0.00 0.00 0.00 0.00 0.01 0.02 0.04 0.07 0.28 0.50 0.83 1.28 2.24 2.29 1.51 1.30 1.67 2.86 1.40 0.88 0.45 0.11 0.03 0.04 0.00 0.02 0.04 0.05 0.06 0.12 0.06 0.04 0.05 0.11 0.05 0.03 0.03 0.03 0.02
0.00 0.00 0.00 0.00 0.00 0.00 0.00 0.00 0.01 0.03 0.07 0.28 0.43 0.47 0.94 1.31 2.00 1.18 0.60 0.99 2.32 2.13 0.74 0.62 0.42 0.21 0.12 0.05 0.03 0.07 0.10 0.13 0.09 0.05 0.06 0.12 0.05 0.13 0.02 0.01 0.01 0.01 0.01
0.00 0.00 0.00 0.00 0.00 0.00 0.00 0.00 0.01 0.03 0.14 0.24 0.16 0.16 0.24 0.43 0.26 0.20 0.21 0.31 0.51 0.41 0.36 0.31 0.20 0.26 0.19 0.11 0.05 0.05 0.14 0.17 0.11 0.05 0.11 0.09 0.06 0.07 0.01 0.01 0.01 0.00 0.00
0.00 0.00 0.00 0.00 0.00 0.00 0.00 0.00 0.01 0.09 0.31 0.15 0.07 0.06 0.08 0.20 0.09 0.11 0.10 0.13 0.17 0.13 0.19 0.28 0.26 0.33 0.28 0.25 0.25 0.11 0.15 0.30 0.15 0.09 0.10 0.05 0.13 0.12 0.03 0.01 0.01 0.00 0.00
0.00 0.00 0.00 0.00 0.00 0.00 0.00 0.00 0.01 0.11 0.33 0.24 0.08 0.11 0.21 0.16 0.05 0.03 0.03 0.04 0.14 0.15 0.22 0.36 0.53 0.62 0.41 0.34 0.39 0.22 0.24 0.31 0.25 0.12 0.10 0.04 0.07 0.11 0.04 0.02 0.01 0.00 0.00
0.00 0.00 0.00 0.00 0.00 0.00 0.00 0.01 0.02 0.13 0.16 0.24 0.30 0.22 0.16 0.11 0.05 0.04 0.02 0.03 0.13 0.24 0.35 0.44 0.39 0.52 0.60 0.42 0.37 0.38 0.22 0.23 0.17 0.09 0.05 0.02 0.09 0.09 0.03 0.02 0.01 0.01 0.01
0.00 0.00 0.00 0.00 0.00 0.00 0.00 0.00 0.02 0.04 0.08 0.06 0.20 0.13 0.13 0.16 0.10 0.04 0.04 0.07 0.26 0.33 0.33 0.27 0.30 0.36 0.47 0.35 0.27 0.19 0.19 0.14 0.08 0.06 0.04 0.04 0.07 0.07 0.02 0.01 0.02 0.01 0.00
0.00 0.00 0.00 0.00 0.00 0.00 0.00 0.00 0.01 0.03 0.04 0.05 0.08 0.10 0.11 0.12 0.16 0.15 0.10 0.16 0.51 0.38 0.14 0.14 0.13 0.16 0.24 0.29 0.25 0.11 0.08 0.12 0.03 0.02 0.01 0.01 0.05 0.03 0.02 0.02 0.02 0.01 0.01
0.00 0.00 0.00 0.00 0.00 0.00 0.00 0.01 0.01 0.02 0.04 0.07 0.07 0.11 0.13 0.09 0.08 0.08 0.11 0.20 0.20 0.38 0.18 0.08 0.11 0.16 0.20 0.23 0.25 0.19 0.16 0.19 0.06 0.01 0.02 0.03 0.03 0.02 0.01 0.03 0.03 0.02 0.03
0.00 0.00 0.00 0.00 0.00 0.00 0.00 0.00 0.01 0.02 0.03 0.08 0.16 0.16 0.13 0.16 0.10 0.09 0.13 0.19 0.14 0.23 0.31 0.26 0.17 0.19 0.20 0.27 0.20 0.19 0.32 0.29 0.19 0.06 0.01 0.01 0.03 0.02 0.01 0.03 0.03 0.04 0.03
0.00 0.00 0.00 0.00 0.00 0.00 0.00 0.00 0.00 0.02 0.03 0.08 0.14 0.11 0.12 0.17 0.17 0.13 0.16 0.14 0.21 0.21 0.23 0.40 0.35 0.20 0.16 0.13 0.29 0.23 0.24 0.23 0.17 0.14 0.03 0.00 0.01 0.01 0.02 0.04 0.03 0.04 0.02
0.00 0.00 0.00 0.00 0.00 0.00 0.00 0.01 0.01 0.02 0.02 0.06 0.09 0.12 0.16 0.19 0.22 0.20 0.19 0.21 0.16 0.18 0.16 0.18 0.30 0.48 0.47 0.34 0.22 0.14 0.19 0.13 0.12 0.09 0.06 0.01 0.00 0.01 0.01 0.04 0.04 0.04 0.03
0.00 0.00 0.00 0.00 0.00 0.00 0.00 0.00 0.01 0.01 0.01 0.02 0.04 0.10 0.16 0.17 0.19 0.21 0.22 0.26 0.23 0.16 0.12 0.07 0.07 0.24 0.35 0.31 0.21 0.14 0.10 0.06 0.10 0.11 0.06 0.01 0.00 0.00 0.01 0.01 0.02 0.03 0.03
0.00 0.00 0.00 0.00 0.00 0.00 0.00 0.00 0.01 0.01 0.01 0.01 0.02 0.09 0.21 0.36 0.43 0.22 0.18 0.23 0.21 0.16 0.07 0.02 0.07 0.06 0.14 0.20 0.23 0.13 0.03 0.02 0.08 0.11 0.05 0.02 0.00 0.00 0.00 0.00 0.00 0.01 0.01
0.00 0.00 0.00 0.00 0.00 0.00 0.00 0.00 0.01 0.02 0.01 0.01 0.05 0.14 0.19 0.30 0.62 0.72 0.40 0.29 0.22 0.16 0.08 0.02 0.05 0.06 0.03 0.07 0.19 0.27 0.12 0.03 0.05 0.08 0.08 0.02 0.00 0.00 0.00 0.00 0.00 0.00 0.00
0.00 0.00 0.00 0.00 0.00 0.00 0.00 0.01 0.02 0.02 0.01 0.02 0.04 0.12 0.22 0.34 0.49 0.81 0.97 0.44 0.35 0.18 0.06 0.03 0.06 0.07 0.06 0.04 0.18 0.24 0.23 0.12 0.08 0.06 0.04 0.01 0.00 0.00 0.00 0.00 0.00 0.00 0.00
0.00 0.00 0.00 0.00 0.00 0.00 0.00 0.00 0.00 0.01 0.01 0.02 0.03 0.05 0.10 0.17 0.18 0.33 0.65 0.60 0.39 0.20 0.12 0.08 0.10 0.09 0.07 0.04 0.08 0.09 0.20 0.12 0.06 0.07 0.06 0.02 0.00 0.00 0.00 0.00 0.00 0.00 0.00
0.00 0.00 0.00 0.00 0.00 0.00 0.00 0.00 0.00 0.07 0.07 0.04 0.03 0.09 0.12 0.17 0.19 0.15 0.29 0.44 0.44 0.32 0.22 0.08 0.09 0.10 0.07 0.06 0.06 0.03 0.03 0.05 0.02 0.02 0.07 0.07 0.02 0.00 0.00 0.00 0.00 0.00 0.00
0.00 0.00 0.00 0.00 0.00 0.00 0.00 0.00 0.00 0.00 0.01 0.01 0.01 0.05 0.17 0.21 0.23 0.19 0.23 0.36 0.48 0.35 0.25 0.14 0.15 0.16 0.14 0.10 0.10 0.10 0.00 0.00 0.00 0.01 0.02 0.08 0.07 0.01 0.00 0.00 0.00 0.00 0.00
0.00 0.00 0.00 0.00 0.00 0.00 0.00 0.00 0.00 0.01 0.01 0.01 0.01 0.08 0.21 0.34 0.35 0.33 0.35 0.44 0.40 0.53 0.29 0.18 0.23 0.25 0.14 0.07 0.02 0.06 0.02 0.02 0.00 0.00 0.02 0.05 0.12 0.05 0.00 0.00 0.00 0.00 0.00
0.00 0.00 0.00 0.00 0.00 0.00 0.00 0.00 0.00 0.00 0.01 0.01 0.01 0.10 0.27 0.37 0.51 0.45 0.41 0.53 0.49 0.39 0.51 0.23 0.23 0.26 0.22 0.15 0.11 0.06 0.05 0.05 0.01 0.00 0.01 0.00 0.04 0.09 0.08 0.02 0.00 0.00 0.00

GFSSE_prec_precacc24_132.txt.gz
Total_Precipitation_Accumulation
0.00 0.00 0.00 0.00 0.00 0.00 0.00 0.00 0.00 0.00 0.00 0.00 0.00 0.00 0.00 0.00 0.00 0.00 0.01 0.04 0.07 0.10 0.09 0.04 0.07 0.12 0.18 0.20 0.18 0.20 0.13 0.24 0.45 1.04 1.19 0.57 0.29 0.17 0.23 0.16 0.12 0.06 0.15
0.00 0.00 0.00 0.00 0.00 0.00 0.00 0.00 0.00 0.00 0.00 0.00 0.00 0.00 0.01 0.03 0.07 0.05 0.05 0.08 0.14 0.21 0.19 0.13 0.21 0.31 0.23 0.20 0.17 0.14 0.08 0.03 0.07 0.34 0.84 0.76 0.35 0.12 0.12 0.13 0.04 0.06 0.15
0.00 0.00 0.00 0.00 0.00 0.00 0.00 0.00 0.00 0.00 0.00 0.00 0.00 0.00 0.09 0.15 0.18 0.22 0.27 0.26 0.37 0.43 0.30 0.17 0.21 0.28 0.27 0.25 0.16 0.19 0.10 0.01 0.04 0.11 0.40 0.50 0.32 0.20 0.07 0.10 0.03 0.08 0.10
0.00 0.00 0.00 0.00 0.00 0.00 0.00 0.00 0.00 0.00 0.00 0.01 0.10 0.11 0.30 0.20 0.31 0.83 1.02 0.90 0.74 0.66 0.42 0.28 0.23 0.20 0.17 0.14 0.11 0.06 0.04 0.04 0.13 0.14 0.10 0.15 0.10 0.15 0.05 0.04 0.09 0.12 0.09
0.00 0.00 0.00 0.00 0.00 0.01 0.00 0.00 0.00 0.01 0.01 0.03 0.06 0.22 0.38 0.59 1.30 2.21 2.41 1.49 1.52 1.36 0.87 0.54 0.32 0.14 0.10 0.06 0.02 0.05 0.04 0.05 0.10 0.15 0.02 0.05 0.06 0.09 0.07 0.07 0.10 0.11 0.06
0.00 0.00 0.00 0.00 0.00 0.00 0.00 0.00 0.00 0.02 0.04 0.07 0.20 0.31 0.60 1.14 2.09 2.17 1.43 1.26 1.67 2.85 1.40 0.89 0.44 0.10 0.03 0.04 0.00 0.02 0.04 0.05 0.07 0.12 0.06 0.05 0.06 0.14 0.08 0.04 0.04 0.03 0.02
0.00 0.00 0.00 0.00 0.00 0.00 0.00 0.00 0.00 0.02 0.06 0.26 0.32 0.25 0.59 1.03 1.80 1.06 0.54 0.96 2.31 2.15 0.79 0.63 0.43 0.20 0.12 0.05 0.03 0.07 0.10 0.13 0.09 0.07 0.08 0.13 0.06 0.18 0.05 0.02 0.01 0.01 0.01
0.00 0.00 0.00 0.00 0.00 0.00 0.00 0.00 0.00 0.02 0.08 0.16 0.13 0.10 0.03 0.28 0.12 0.04 0.08 0.24 0.46 0.42 0.40 0.33 0.19 0.26 0.19 0.11 0.05 0.06 0.14 0.18 0.14 0.08 0.15 0.11 0.09 0.11 0.02 0.01 0.00 0.00 0.00
0.00 0.00 0.00 0.00 0.00 0.00 0.00 0.00 0.00 0.02 0.07 0.03 0.02 0.03 0.05 0.17 0.02 0.02 0.05 0.05 0.07 0.09 0.20 0.30 0.26 0.33 0.28 0.25 0.25 0.12 0.15 0.32 0.18 0.19 0.26 0.12 0.16 0.15 0.04 0.01 0.00 0.00 0.00
0.00 0.00 0.00 0.00 0.00 0.00 0.00 0.00 0.00 0.02 0.01 0.00 0.01 0.03 0.12 0.12 0.05 0.01 0.02 0.03 0.08 0.08 0.24 0.38 0.55 0.62 0.42 0.34 0.39 0.23 0.24 0.33 0.29 0.19 0.20 0.11 0.10 0.18 0.05 0.03 0.01 0.00 0.00
0.00 0.00 0.00 0.00 0.00 0.00 0.00 0.00 0.01 0.02 0.01 0.06 0.09 0.12 0.11 0.08 0.04 0.04 0.01 0.01 0.09 0.23 0.37 0.52 0.49 0.52 0.65 0.42 0.38 0.39 0.22 0.23 0.19 0.13 0.07 0.07 0.13 0.15 0.04 0.04 0.02 0.01 0.01
0.00 0.00 0.00 0.00 0.00 0.00 0.00 0.00 0.02 0.02 0.02 0.01 0.04 0.03 0.06 0.09 0.07 0.04 0.04 0.06 0.22 0.31 0.36 0.32 0.37 0.39 0.48 0.35 0.27 0.21 0.19 0.17 0.09 0.07 0.05 0.06 0.10 0.13 0.03 0.03 0.03 0.02 0.01
0.00 0.00 0.00 0.00 0.00 0.00 0.00 0.00 0.01 0.03 0.03 0.03 0.06 0.06 0.07 0.09 0.14 0.13 0.10 0.15 0.46 0.36 0.14 0.16 0.14 0.16 0.24 0.29 0.25 0.11 0.08 0.12 0.04 0.02 0.02 0.02 0.11 0.10 0.03 0.04 0.03 0.02 0.01
0.00 0.00 0.00 0.00 0.00 0.00 0.00 0.00 0.01 0.02 0.03 0.06 0.06 0.09 0.11 0.08 0.07 0.08 0.11 0.18 0.19 0.37 0.18 0.09 0.11 0.16 0.20 0.23 0.25 0.19 0.17 0.23 0.12 0.02 0.02 0.04 0.09 0.09 0.02 0.04 0.04 0.03 0.03
0.00 0.00 0.00 0.00 0.00 0.00 0.00 0.00 0.01 0.02 0.02 0.06 0.14 0.14 0.11 0.15 0.08 0.09 0.13 0.18 0.13 0.23 0.31 0.26 0.17 0.19 0.20 0.27 0.20 0.20 0.40 0.41 0.36 0.26 0.07 0.02 0.06 0.10 0.02 0.03 0.04 0.04 0.03
0.00 0.00 0.00 0.00 0.00 0.00 0.00 0.00 0.00 0.01 0.02 0.05 0.09 0.08 0.09 0.16 0.16 0.12 0.15 0.14 0.18 0.20 0.23 0.40 0.35 0.20 0.16 0.20 0.33 0.26 0.32 0.32 0.31 0.33 0.24 0.13 0.08 0.10 0.07 0.07 0.04 0.05 0.03
0.00 0.00 0.00 0.00 0.00 0.00 0.00 0.00 0.00 0.01 0.01 0.05 0.06 0.05 0.11 0.17 0.21 0.19 0.17 0.16 0.14 0.18 0.16 0.18 0.30 0.48 0.47 0.37 0.24 0.20 0.32 0.22 0.18 0.15 0.13 0.09 0.07 0.03 0.03 0.05 0.06 0.08 0.05
0.00 0.00 0.00 0.00 0.00 0.00 0.00 0.00 0.00 0.01 0.01 0.02 0.03 0.05 0.06 0.09 0.16 0.20 0.21 0.23 0.19 0.14 0.12 0.07 0.07 0.24 0.35 0.31 0.22 0.14 0.12 0.09 0.12 0.13 0.14 0.12 0.09 0.04 0.01 0.02 0.03 0.06 0.05
0.00 0.00 0.00 0.00 0.00 0.00 0.00 0.00 0.00 0.00 0.01 0.01 0.01 0.03 0.07 0.14 0.22 0.18 0.17 0.23 0.20 0.14 0.07 0.02 0.07 0.06 0.14 0.20 0.23 0.13 0.03 0.03 0.11 0.17 0.17 0.16 0.11 0.06 0.00 0.00 0.00 0.02 0.03
0.00 0.00 0.00 0.00 0.00 0.00 0.00 0.00 0.01 0.01 0.01 0.01 0.01 0.01 0.05 0.17 0.35 0.57 0.36 0.29 0.21 0.15 0.08 0.02 0.05 0.06 0.03 0.07 0.19 0.27 0.13 0.04 0.07 0.16 0.24 0.26 0.15 0.05 0.01 0.00 0.00 0.01 0.01
0.00 0.00 0.00 0.00 0.00 0.00 0.00 0.00 0.01 0.01 0.01 0.01 0.01 0.01 0.07 0.27 0.39 0.62 0.92 0.44 0.34 0.17 0.06 0.03 0.06 0.07 0.06 0.04 0.18 0.24 0.23 0.12 0.12 0.11 0.13 0.19 0.18 0.04 0.00 0.00 0.00 0.00 0.00
0.00 0.00 0.00 0.00 0.00 0.00 0.00 0.00 0.00 0.01 0.01 0.01 0.01 0.02 0.04 0.09 0.15 0.25 0.62 0.59 0.39 0.20 0.12 0.08 0.10 0.09 0.07 0.04 0.08 0.09 0.20 0.12 0.07 0.08 0.08 0.07 0.08 0.03 0.00 0.00 0.00 0.00 0.00
0.00 0.00 0.00 0.00 0.00 0.00 0.00 0.00 0.00 0.07 0.08 0.04 0.02 0.04 0.04 0.07 0.13 0.14 0.26 0.42 0.44 0.32 0.22 0.08 0.09 0.10 0.07 0.06 0.06 0.03 0.04 0.05 0.02 0.02 0.07 0.09 0.08 0.05 0.01 0.00 0.00 0.00 0.00
0.00 0.00 0.00 0.00 0.00 0.00 0.00 0.00 0.00 0.00 0.01 0.00 0.01 0.01 0.04 0.07 0.15 0.18 0.22 0.36 0.49 0.35 0.25 0.14 0.15 0.16 0.14 0.11 0.10 0.10 0.00 0.00 0.00 0.01 0.02 0.08 0.10 0.08 0.05 0.01 0.00 0.00 0.00
0.00 0.00 0.00 0.00 0.00 0.00 0.00 0.00 0.00 0.00 0.00 0.01 0.01 0.02 0.03 0.06 0.20 0.30 0.34 0.44 0.41 0.54 0.29 0.18 0.23 0.25 0.15 0.08 0.03 0.06 0.02 0.02 0.00 0.00 0.02 0.05 0.13 0.08 0.06 0.05 0.02 0.00 0.00
0.00 0.00 0.00 0.00 0.00 0.00 0.00 0.00 0.00 0.00 0.01 0.01 0.01 0.02 0.05 0.11 0.26 0.32 0.36 0.52 0.50 0.40 0.52 0.24 0.23 0.27 0.22 0.15 0.12 0.06 0.06 0.05 0.01 0.00 0.00 0.00 0.04 0.11 0.15 0.10 0.03 0.00 0.00